Home   Weather   Prince George   Past weeks

Flag for Canada Past Weather in Prince George, British Columbia, Canada — Yesterday and Last 2 Weeks

Now
-13 °F

Partly sunny.


Feels Like: -13 °F
Forecast: -6 / 6 °F
Wind: No wind

Location: Prince George

Current Time: Dec 9, 2016 at 9:27:34 am

Latest Report: Dec 9, 2016 at 8:54 am


Visibility: 9 mi

Pressure: 30.36 "Hg (28.06 "Hg at 573m altitude)

Humidity: 76%

Dew Point: -18 °F

Location of Prince GeorgeLocation

Past Weather in Prince George — Graph

°F

Prince George Temperature Yesterday

Maximum temperature yesterday: -4 °F (at 2:00 pm)
Minimum temperature yesterday: -13 °F (at 9:00 am)
Average temperature yesterday: -9 °F

High & Low Weather Summary for the Past Weeks

 TemperatureHumidityPressure
High41 °F (Nov 24, 9:00 am)100% (Nov 24, 5:00 pm)30.86 "Hg (Nov 24, 5:00 pm)
Low-15 °F (Dec 9, 5:00 am)60% (Dec 6, 2:00 pm)29.47 "Hg (Nov 27, 7:57 pm)
Average20 °F91%30.04 "Hg
* Reported Nov 24 8:00 am — Dec 9 8:00 am, Prince George, Weather by CustomWeather, © 2016

Note: Actual official high and low records may vary slightly from our data, if they occured in-between our weather recording intervals... More about our weather records

Advertising

Prince George Weather History for the Previous 24 Hours

Scroll right to see more
 ConditionsComfort  
Time TempWeatherWind HumidityBarometerVisibility
8:00 am
Fri, Dec 9
-15 °FPassing clouds.No wind83%30.37 "Hg9 mi
7:04 am-15 °FLight snow. Passing clouds.2 mph83%30.40 "Hg9 mi
7:00 am-15 °FLight snow. Passing clouds.2 mph83%30.40 "Hg2 mi
6:00 am-15 °FPassing clouds.2 mph76%30.41 "Hg9 mi
5:00 am-15 °FClear.2 mph83%30.42 "Hg9 mi
4:00 am-13 °FClear.2 mph76%30.42 "Hg9 mi
3:00 am-13 °FClear.No wind76%30.45 "Hg9 mi
2:00 am-13 °FClear.2 mph83%30.48 "Hg9 mi
1:00 am-13 °FClear.2 mph83%30.50 "Hg9 mi
12:00 am-11 °FClear.No wind76%30.50 "Hg8 mi
11:00 pm
Thu, Dec 8
-11 °FClear.2 mph84%30.51 "Hg7 mi
10:00 pm-11 °FLight snow. Clear.2 mph84%30.53 "Hg8 mi
9:01 pm-9 °FPassing clouds.2 mph77%30.53 "Hg9 mi
8:04 pm-9 °FLight snow. Clear.No wind84%30.55 "Hg9 mi
7:00 pm-9 °FClear.No wind77%30.56 "Hg9 mi
6:00 pm-8 °FClear.No wind84%30.57 "Hg9 mi
5:00 pm-9 °FClear.3 mph84%30.61 "Hg9 mi
4:00 pm-4 °FClear.3 mph84%30.62 "Hg9 mi
3:00 pm-4 °FSunny.No wind84%30.65 "Hg9 mi
2:00 pm-4 °FSunny.No wind84%30.67 "Hg9 mi
1:00 pm-6 °FIce fog.No wind84%30.70 "Hg4 mi
12:00 pm-6 °FIce fog.3 mph84%30.72 "Hg4 mi
11:00 am-8 °FLight snow. Passing clouds.2 mph77%30.75 "Hg2 mi
10:00 am-9 °FPassing clouds.3 mph84%30.77 "Hg9 mi
9:00 am-13 °FPassing clouds.No wind83%30.79 "Hg7 mi
Weather by CustomWeather, © 2016

See weather overviewHow to use our weather pages